Regional Weather Roundup
Issued by NWS Raleigh/Durham, NC

Home | Current Version | Previous Version | Text Only | Print | Product List | Glossary On
Versions: 1 2 3 4 5 6 7 8 9 10 11 12 13 14 15 16 17 18 19 20 21 22 23 24 25 26 27 28 29 30 31 32 33 34 35 36 37 38 39 40 41 42 43 44 45 46 47 48 49 50
000
ASUS42 KRAH 242210
RWRRAH
NORTH CAROLINA WEATHER ROUNDUP
NATIONAL WEATHER SERVICE RALEIGH NC
500 PM EST TUE JAN 24 2017

NOTE: "FAIR" INDICATES FEW OR NO CLOUDS BELOW 12,000 FEET WITH NO
SIGNIFICANT WEATHER AND/OR OBSTRUCTIONS TO VISIBILITY.

NCZ001-053-055-056-065-067-242300-
WESTERN NORTH CAROLINA

CITY           SKY/WX    TMP DP  RH WIND       PRES   REMARKS
ASHEVILLE      CLEAR     48  36  63 N15       29.81R
JEFFERSON      PTCLDY    40  33  77 NW15G30   29.73R WCI  31
MORGANTON      CLEAR     58  36  43 NW3       29.79R
HICKORY        CLEAR     58  32  37 NW9       29.73R
RUTHERFORDTON  NOT AVBL
MOUNT AIRY     NOT AVBL
BOONE          CLOUDY    38  37  92 W22G28    29.76R WCI  28
$$

NCZ021-022-025-041-071-084-088-242300-
CENTRAL NORTH CAROLINA

CITY           SKY/WX    TMP DP  RH WIND       PRES   REMARKS
CHARLOTTE      CLEAR     64  35  34 W9        29.72R
GREENSBORO     PTCLDY    55  38  52 NW14      29.72R
WINSTON-SALEM  CLEAR     56  35  45 NW7       29.74R
RALEIGH-DURHAM PTCLDY    59  37  44 NW9G25    29.68R
FORT BRAGG     CLEAR     63  38  40 NW10      29.67R
FAYETTEVILLE   CLEAR     64  39  39 NW13      29.68R
BURLINGTON     MOCLDY    58  38  47 NW10G17   29.70R
LAURINBURG     CLEAR     63  40  42 NW7       29.70R
$$

NCZ011-015-027-028-043-044-047-080-103-242300-
NORTHEASTERN NORTH CAROLINA

CITY           SKY/WX    TMP DP  RH WIND       PRES   REMARKS
ROCKY MT-WILSO CLEAR     59  39  47 NW9       29.64R
GREENVILLE     CLEAR     59  37  44 NW6       29.66R
WASHINGTON     CLEAR     58  39  50 W6          N/A
ELIZABETH CITY CLEAR     52  38  58 W13       29.58R
MANTEO         CLEAR     50  38  64 W8        29.59R
CAPE HATTERAS  CLEAR     53  40  61 NW9       29.61R
$$

NCZ078-087-090-091-093-098-101-242300-
SOUTHEASTERN NORTH CAROLINA

CITY           SKY/WX    TMP DP  RH WIND       PRES   REMARKS
LUMBERTON      CLEAR     63  42  46 W9        29.69R
GOLDSBORO      CLEAR     61  38  43 W10       29.63R
KINSTON        PTCLDY    61  39  44 W5        29.64R
KENANSVILLE    CLEAR     61  41  48 NW6       29.66R
NEW BERN       CLEAR     57  40  52 NW7       29.64R
CHERRY POINT   PTCLDY    57  39  51 W9        29.64R
BEAUFORT       CLEAR     56  42  59 NW12      29.64R
JACKSONVILLE   CLEAR     60  42  51 W10       29.64R
WILMINGTON     CLEAR     62  43  49 W13       29.67R
$$




USA.gov is the U.S. government's official web portal to all federal, state and local government web resources and services.